Volver al catálogo

FENGYUN 1C DEB

LostSSO
NORAD 36714·DEBRIS·🇨🇳 China

Lanzado May 10, 1999 desde Taiyuan Satellite Launch Center

Loading…

Próximos Pases (próximas 24 horas)

TLE

ObsoletoSource: Space-Track

Época: Sep 22, 2022, 23:59 UTC

1 36714U 99025EAL 22265.99986628  .00001741  00000-0  87008-3 0  9999
2 36714  98.7675 331.0240 0034689 221.5183 138.3356 14.17789316723693

Sigue FENGYUN 1C DEB en tiempo real con AllMySat

Download on the App Store